Peachtree City, GA

10:27 AM EDT on May 24, 2018 (GMT -0400)
Peachtree City-Falcon

Weather History for KFFC - March, 2014

Change the Weather History Date:

Monday, March 10, 2014

  Actual Average Record
Temperature  
Mean Temperature 56 °F 52 °F  
Max Temperature 73 °F 65 °F 81 °F (2009)
Min Temperature 39 °F 39 °F 25 °F (2001)
Degree Days  
Heating Degree Days 9 13  
Month to date heating degree days 153 143  
Since 1 July heating degree days 2683 2525  
Cooling Degree Days 0 0  
Month to date cooling degree days 0 0  
Year to date cooling degree days 0 0  
Growing Degree Days 6 (Base 50)    
Moisture  
Dew Point 43 °F    
Average Humidity 68    
Maximum Humidity 100    
Minimum Humidity 35    
Precipitation  
Precipitation 0.00 in 0.17 in 0.29 in (2006)
Month to date precipitation 0.49 1.74  
Year to date precipitation 6.83 10.84  
Snow  
Snow 0.00 in - - ()
Month to date snowfall 0.0  
Since 1 July snowfall 1.8  
Snow Depth 0.00 in    
Sea Level Pressure  
Sea Level Pressure 30.05 in    
Wind  
Wind Speed 5 mph (WNW)    
Max Wind Speed 18 mph    
Max Gust Speed 24 mph    
Visibility 8 miles    
Events      
T = Trace of Precipitation, MM = Missing Value Source: NWS Daily Summary

Daily Weather History Graph

Daily Weather History Graph

Search for Another Location

Airport or City:

Astronomy

Mar. 10, 2014 Rise Set
Actual Time 7:55 AM EDT 7:42 PM EDT
Civil Twilight 7:30 AM EDT 8:07 PM EDT
Nautical Twilight 7:01 AM EDT 8:35 PM EDT
Astronomical Twilight 6:32 AM EDT 9:04 PM EDT
Moon 2:36 PM EDT (3/10) 3:54 AM EDT (3/10)
Length of Visible Light 12h 36m
Length of Day
11h 47m
Waxing Gibbous, 70% of the Moon is Illuminated
Mar 10
Waxing Gibbous
Mar 16
Full
Mar 23
Last Quarter
Mar 30
New
Apr 7
First Quarter

Hourly Weather History & Observations

Time (EDT) Temp. Dew Point Humidity Pressure Visibility Wind Dir Wind Speed Gust Speed Precip Events Conditions
12:53 AM 46.0 °F 42.1 °F 86% 30.14 in 10.0 mi Calm Calm - N/A   Clear
1:53 AM 45.0 °F 42.1 °F 90% 30.12 in 9.0 mi Calm Calm - N/A   Clear
2:53 AM 44.1 °F 42.1 °F 93% 30.11 in 7.0 mi Calm Calm - N/A   Clear
3:53 AM 43.0 °F 39.9 °F 89% 30.10 in 6.0 mi Calm Calm - N/A   Clear
4:53 AM 42.1 °F 39.9 °F 92% 30.09 in 5.0 mi Calm Calm - N/A   Clear
5:53 AM 41.0 °F 39.0 °F 93% 30.09 in 5.0 mi Calm Calm - N/A   Clear
6:53 AM 39.9 °F 39.0 °F 97% 30.09 in 4.0 mi Calm Calm - N/A   Clear
7:53 AM 39.0 °F 37.0 °F 93% 30.10 in 3.0 mi Calm Calm - N/A   Clear
8:06 AM 39.0 °F 37.0 °F 93% 30.10 in 2.5 mi Calm Calm - N/A   Clear
8:37 AM 41.0 °F 39.0 °F 93% 30.11 in 3.0 mi Calm Calm - N/A   Clear
8:53 AM 43.0 °F 41.0 °F 93% 30.12 in 4.0 mi Calm Calm - N/A   Clear
9:53 AM 54.0 °F 44.1 °F 69% 30.12 in 8.0 mi WNW 4.6 mph - N/A   Clear
10:53 AM 60.1 °F 46.0 °F 60% 30.12 in 10.0 mi NNW 9.2 mph - N/A   Clear
11:53 AM 63.0 °F 46.0 °F 54% 30.11 in 10.0 mi WNW 13.8 mph - N/A   Clear
12:53 PM 66.9 °F 46.9 °F 49% 30.08 in 10.0 mi West 8.1 mph - N/A   Clear
1:53 PM 69.1 °F 46.9 °F 45% 30.04 in 10.0 mi West 12.7 mph 21.9 mph N/A   Partly Cloudy
2:15 PM 70.0 °F 46.9 °F 44% 30.03 in 10.0 mi NW 15.0 mph 24.2 mph N/A   Partly Cloudy
2:53 PM 70.0 °F 48.0 °F 46% 30.01 in 10.0 mi NW 11.5 mph 19.6 mph N/A   Mostly Cloudy
3:53 PM 70.0 °F 46.0 °F 42% 29.99 in 10.0 mi WNW 12.7 mph 19.6 mph N/A   Partly Cloudy
4:53 PM 73.0 °F 45.0 °F 37% 29.96 in 10.0 mi WNW 16.1 mph 19.6 mph N/A   Partly Cloudy
5:53 PM 72.0 °F 44.1 °F 37% 29.94 in 10.0 mi West 11.5 mph 19.6 mph N/A   Clear
6:53 PM 71.1 °F 43.0 °F 36% 29.95 in 10.0 mi West 6.9 mph - N/A   Clear
7:53 PM 66.9 °F 42.1 °F 40% 29.96 in 10.0 mi West 4.6 mph - N/A   Clear
8:53 PM 57.9 °F 44.1 °F 60% 29.96 in 10.0 mi Calm Calm - N/A   Clear
9:53 PM 53.1 °F 45.0 °F 74% 29.97 in 10.0 mi Calm Calm - N/A   Clear
10:53 PM 51.1 °F 44.1 °F 77% 29.98 in 10.0 mi Calm Calm - N/A   Clear
11:53 PM 46.9 °F 43.0 °F 86% 29.98 in 10.0 mi Calm Calm - N/A   Clear